TimeCST,TemperatureF,Dew PointF,Humidity,Sea Level PressureIn,VisibilityMPH,Wind Direction,Wind SpeedMPH,Gust SpeedMPH,PrecipitationIn,Events,Conditions,WindDirDegrees,DateUTC
12:05 AM,33.8,30.2,87,29.65,4.0,East,10.4,-,0.06,Rain,Light Freezing Rain,100,2013-02-21 06:05:00
12:34 AM,33.8,30.2,87,29.66,6.0,ESE,19.6,-,0.14,Rain,Light Freezing Rain,120,2013-02-21 06:34:00
12:48 AM,33.8,30.2,87,29.67,4.0,ESE,17.3,-,0.16,Snow,Light Snow,120,2013-02-21 06:48:00
12:49 AM,33.8,30.2,87,29.67,4.0,ESE,17.3,-,0.16,Snow,Light Snow,120,2013-02-21 06:49:00
12:53 AM,33.1,30.9,92,29.68,3.0,ESE,17.3,-,0.17,Snow,Light Snow,120,2013-02-21 06:53:00
1:01 AM,33.8,30.2,87,29.68,1.8,ESE,12.7,20.7,0.01,Snow,Light Snow,110,2013-02-21 07:01:00
1:11 AM,33.8,30.2,87,29.68,2.5,ESE,13.8,-,0.01,Snow,Light Snow,110,2013-02-21 07:11:00
1:32 AM,33.8,30.2,87,29.68,1.5,ESE,3.5,-,0.04,Snow,Light Snow,110,2013-02-21 07:32:00
1:53 AM,33.1,30.0,89,29.72,0.8,SE,6.9,-,0.07,Snow,Light Snow,130,2013-02-21 07:53:00
2:00 AM,32.0,30.2,93,29.69,0.5,East,8.1,-,0.03,Fog-Snow,Snow,100,2013-02-21 08:00:00
2:08 AM,32.0,30.2,93,29.66,1.0,East,16.1,-,0.05,Snow,Light Snow,100,2013-02-21 08:08:00
2:30 AM,32.0,28.4,87,29.65,2.0,ESE,15.0,-,0.07,Snow,Light Snow,110,2013-02-21 08:30:00
2:40 AM,32.0,28.4,87,29.64,4.0,ESE,16.1,-,0.07,Snow,Light Snow,110,2013-02-21 08:40:00
2:53 AM,30.9,28.9,92,29.66,6.0,ESE,16.1,-,0.07,,Overcast,110,2013-02-21 08:53:00
3:34 AM,30.2,28.4,93,29.58,7.0,East,25.3,-,0.01,,Overcast,100,2013-02-21 09:34:00
3:53 AM,30.9,28.0,89,29.62,10.0,SE,25.3,32.2,0.01,,Overcast,130,2013-02-21 09:53:00
4:23 AM,30.2,28.4,93,29.57,9.0,ESE,23.0,-,N/A,,Overcast,120,2013-02-21 10:23:00
4:53 AM,30.0,28.0,92,29.57,10.0,ESE,24.2,29.9,N/A,,Overcast,120,2013-02-21 10:53:00
5:28 AM,30.2,28.4,93,29.54,1.5,ESE,25.3,-,N/A,,Overcast,120,2013-02-21 11:28:00
5:32 AM,30.2,26.6,86,29.55,0.8,ESE,21.9,-,N/A,,Mist,120,2013-02-21 11:32:00
5:53 AM,30.0,28.0,92,29.56,0.8,SE,20.7,26.5,N/A,,Mist,130,2013-02-21 11:53:00
6:01 AM,30.2,28.4,93,29.53,1.2,SE,21.9,28.8,N/A,,Overcast,130,2013-02-21 12:01:00
6:10 AM,30.2,28.4,93,29.54,0.8,ESE,23.0,-,N/A,,Mist,120,2013-02-21 12:10:00
6:28 AM,30.2,28.4,93,29.55,0.5,SE,16.1,-,N/A,Fog,Light Freezing Fog,130,2013-02-21 12:28:00
6:53 AM,30.0,28.9,96,29.60,0.5,South,16.1,19.6,N/A,Fog,Light Freezing Fog,170,2013-02-21 12:53:00
7:03 AM,30.2,28.4,93,29.57,0.2,SSE,20.7,-,N/A,Fog,Light Freezing Fog,160,2013-02-21 13:03:00
7:17 AM,30.2,28.4,93,29.57,0.2,SSE,20.7,-,N/A,Fog,Light Freezing Fog,160,2013-02-21 13:17:00
7:53 AM,30.0,28.9,96,29.60,0.2,SSE,17.3,26.5,N/A,Fog,Light Freezing Fog,160,2013-02-21 13:53:00
8:53 AM,30.0,28.9,96,29.62,0.2,SE,11.5,-,N/A,Fog,Light Freezing Fog,140,2013-02-21 14:53:00
9:37 AM,30.2,28.4,93,29.59,0.2,SE,12.7,-,0.01,Fog-Snow,Light Snow,140,2013-02-21 15:37:00
9:53 AM,30.9,30.0,96,29.60,0.2,SSE,11.5,-,0.01,,Mist,150,2013-02-21 15:53:00
10:26 AM,32.0,32.0,100,29.59,1.5,SSE,8.1,-,0.00,Snow,Light Snow,160,2013-02-21 16:26:00
10:53 AM,33.1,30.9,92,29.60,3.0,SSE,11.5,-,0.00,,Overcast,160,2013-02-21 16:53:00
11:08 AM,33.8,30.2,87,29.59,3.0,South,10.4,-,N/A,,Overcast,170,2013-02-21 17:08:00
11:15 AM,33.8,30.2,87,29.60,3.0,SSE,11.5,-,N/A,,Overcast,160,2013-02-21 17:15:00
11:29 AM,33.8,30.2,87,29.60,3.0,SSW,6.9,-,N/A,,Overcast,210,2013-02-21 17:29:00
11:53 AM,33.1,30.0,89,29.65,7.0,NNW,16.1,20.7,N/A,,Overcast,340,2013-02-21 17:53:00
12:00 PM,33.8,30.2,87,29.64,7.0,NNW,17.3,-,N/A,,Overcast,340,2013-02-21 18:00:00
12:45 PM,33.8,30.2,87,29.67,10.0,NNW,17.3,-,0.00,,Overcast,340,2013-02-21 18:45:00
12:53 PM,33.1,28.9,85,29.70,10.0,NNW,15.0,23.0,0.00,,Overcast,340,2013-02-21 18:53:00
1:16 PM,33.8,28.4,81,29.69,10.0,NNW,20.7,26.5,N/A,,Overcast,340,2013-02-21 19:16:00
1:37 PM,32.0,28.4,87,29.69,10.0,North,20.7,28.8,N/A,,Overcast,360,2013-02-21 19:37:00
1:44 PM,32.0,28.4,87,29.70,10.0,North,20.7,27.6,N/A,,Overcast,350,2013-02-21 19:44:00
1:53 PM,32.0,28.0,85,29.72,10.0,North,21.9,27.6,N/A,,Overcast,360,2013-02-21 19:53:00
2:53 PM,30.0,26.1,85,29.78,10.0,North,15.0,-,N/A,,Overcast,350,2013-02-21 20:53:00
3:29 PM,28.4,24.8,86,29.76,10.0,North,16.1,-,N/A,,Overcast,350,2013-02-21 21:29:00
3:53 PM,28.9,24.1,82,29.81,10.0,NNW,11.5,-,N/A,,Overcast,340,2013-02-21 21:53:00
4:44 PM,28.4,24.8,86,29.79,10.0,North,13.8,-,N/A,,Overcast,350,2013-02-21 22:44:00
4:53 PM,28.9,23.0,78,29.83,10.0,North,13.8,-,N/A,,Overcast,350,2013-02-21 22:53:00
5:01 PM,28.4,23.0,80,29.79,10.0,North,16.1,-,N/A,,Overcast,360,2013-02-21 23:01:00
5:12 PM,28.4,21.2,74,29.80,10.0,North,11.5,-,N/A,,Overcast,350,2013-02-21 23:12:00
5:53 PM,26.1,21.0,81,29.85,10.0,North,16.1,-,N/A,,Mostly Cloudy,360,2013-02-21 23:53:00
6:06 PM,26.6,19.4,74,29.82,10.0,North,15.0,-,N/A,,Scattered Clouds,360,2013-02-22 00:06:00
6:53 PM,25.0,19.9,81,29.90,10.0,North,15.0,-,N/A,,Mostly Cloudy,350,2013-02-22 00:53:00
7:53 PM,25.0,19.0,78,29.90,10.0,North,18.4,-,N/A,,Mostly Cloudy,350,2013-02-22 01:53:00
8:53 PM,24.1,18.0,77,29.94,10.0,North,15.0,-,N/A,,Clear,350,2013-02-22 02:53:00
9:53 PM,23.0,18.0,81,29.97,10.0,NNW,6.9,-,N/A,,Clear,330,2013-02-22 03:53:00
10:53 PM,23.0,17.1,78,29.99,10.0,North,9.2,-,N/A,,Clear,350,2013-02-22 04:53:00
11:53 PM,23.0,17.1,78,29.98,10.0,North,10.4,-,N/A,,Clear,360,2013-02-22 05:53:00